Weather History for Edwards AFB, CA

Change the Weather History Date:

Thursday, December 13, 2012

  Actual Average Record
Temperature  
Mean Temperature 44 °F -  
Max Temperature 48 °F 56 °F 66 °F (1996)
Min Temperature 39 °F 28 °F 22 °F (2007)
Degree Days  
Heating Degree Days 20    
Moisture  
Dew Point 43 °F    
Average Humidity 94    
Maximum Humidity 100    
Minimum Humidity 75    
Precipitation  
Precipitation 0.15 in - - ()
Sea Level Pressure  
Sea Level Pressure 29.76 in    
Wind  
Wind Speed 4 mph (West)    
Max Wind Speed 9 mph    
Max Gust Speed -    
Visibility 11 miles    
Events Rain    
Averages and records for this station are not official NWS values.
T = Trace of Precipitation, MM = Missing Value Source: NWS Daily Summary

Daily Weather History Graph

Daily Weather History Graph

Search for Another Location

Airport:

Trip Planner

Search our weather history database for the weather conditions in past years. The results will help you decide how hot, cold, wet, or windy it might be!

Date:

Astronomy

Dec. 13, 2012 Rise Set
Actual Time 6:50 AM PST 4:41 PM PST
Civil Twilight 6:22 AM PST 5:09 PM PST
Nautical Twilight 5:51 AM PST 5:40 PM PST
Astronomical Twilight 5:20 AM PST 6:11 PM PST
Moon 7:04 AM PST (12/13) 5:27 PM PST (12/13)
Length of Visible Light 10h 46m
Length of Day
9h 50m
New Moon, 0% of the Moon is Illuminated
Dec 13
New Moon
Dec 19
First Quarter
Dec 28
Full
Jan 4
Last Quarter
Jan 11
New

Hourly Weather History & Observations

Time (PST) Temp. Windchill Dew Point Humidity Pressure Visibility Wind Dir Wind Speed Gust Speed Precip Events Conditions
12:23 AM 44.6 °F 41.4 °F 42.8 °F 93% 29.78 in 10.0 mi WSW 5.8 mph - N/A   Mostly Cloudy
12:58 AM 46.9 °F - 43.5 °F 88% 29.76 in 10.0 mi WSW 5.8 mph - N/A   Overcast
1:08 AM 46.4 °F 44.3 °F 44.6 °F 93% 29.77 in 10.0 mi West 4.6 mph - N/A   Overcast
1:43 AM 46.4 °F - 44.6 °F 93% 29.77 in 10.0 mi NNW 1.2 mph - N/A   Overcast
1:49 AM 46.4 °F - 44.6 °F 93% 29.78 in 10.0 mi Calm Calm - N/A Rain Light Rain
1:58 AM 46.6 °F - 44.4 °F 92% 29.77 in 5.0 mi WNW 2.3 mph - 0.00 in Rain Rain
2:03 AM 46.4 °F - 46.4 °F 100% 29.78 in 6.0 mi NNW 2.3 mph - N/A Rain Light Rain
2:43 AM 44.6 °F - 44.6 °F 100% 29.78 in 4.0 mi NNW 2.3 mph - N/A Rain Rain
2:44 AM 44.6 °F - 44.6 °F 100% 29.78 in 4.0 mi North 1.2 mph - N/A Rain Rain
2:58 AM 43.9 °F - 43.9 °F 100% 29.78 in 5.0 mi NW 2.3 mph - 0.07 in Rain Light Rain
3:03 AM 42.8 °F - 42.8 °F 100% 29.78 in 8.0 mi NNW 2.3 mph - N/A Rain Light Rain
3:08 AM 42.8 °F 41.1 °F 42.8 °F 100% 29.78 in 9.0 mi NNW 3.5 mph - N/A Rain Light Rain
3:13 AM 42.8 °F 41.1 °F 42.8 °F 100% 29.78 in 9.0 mi NW 3.5 mph - N/A Rain Light Rain
3:33 AM 42.8 °F 41.1 °F 42.8 °F 100% 29.76 in 10.0 mi North 3.5 mph - N/A Rain Light Rain
3:34 AM 42.8 °F 41.1 °F 42.8 °F 100% 29.76 in 10.0 mi North 3.5 mph - N/A   Overcast
3:58 AM 43.2 °F - 43.2 °F 100% 29.75 in 10.0 mi ENE 2.3 mph - 0.02 in   Overcast
4:19 AM 42.8 °F - 42.8 °F 100% 29.75 in 10.0 mi SE 2.3 mph - N/A   Light Drizzle
4:39 AM 42.8 °F - 42.8 °F 100% 29.76 in 10.0 mi ESE 1.2 mph - N/A   Overcast
4:54 AM 42.8 °F - 42.8 °F 100% 29.76 in 10.0 mi Calm Calm - N/A   Overcast
4:58 AM 43.5 °F - 43.5 °F 100% 29.76 in 10.0 mi Calm Calm - 0.00 in   Overcast
5:09 AM 44.6 °F - 44.6 °F 100% 29.76 in 10.0 mi Calm Calm - N/A Rain Light Rain
5:19 AM 44.6 °F - 44.6 °F 100% 29.77 in 10.0 mi South 2.3 mph - N/A Rain Light Rain
5:21 AM 44.6 °F - 44.6 °F 100% 29.76 in 9.0 mi Calm Calm - N/A Rain Light Rain
5:47 AM 44.6 °F 43.1 °F 44.6 °F 100% 29.77 in 10.0 mi South 3.5 mph - N/A   Mostly Cloudy
5:58 AM 43.7 °F 42.1 °F 43.7 °F 100% 29.77 in 30.0 mi SW 3.5 mph - 0.01 in   Mostly Cloudy
6:12 AM 42.8 °F 39.3 °F 42.8 °F 100% 29.76 in 30.0 mi WSW 5.8 mph - N/A   Mostly Cloudy
6:58 AM 41.7 °F - 41.7 °F 100% 29.77 in 60.0 mi WSW 2.3 mph - N/A   Mostly Cloudy
7:08 AM 41.0 °F - 41.0 °F 100% 29.77 in 60.0 mi ESE 1.2 mph - N/A   Mostly Cloudy
7:55 AM 41.9 °F 40.0 °F 41.9 °F 100% 29.78 in 80.0 mi South 3.5 mph - N/A   Overcast
8:25 AM 41.0 °F 36.4 °F 41.0 °F 100% 29.79 in 80.0 mi SSE 6.9 mph - N/A Rain Light Rain
8:44 AM 41.0 °F 36.4 °F 41.0 °F 100% 29.79 in 80.0 mi South 6.9 mph - N/A   Mostly Cloudy
8:55 AM 41.7 °F 38.8 °F 41.7 °F 100% 29.78 in 80.0 mi SSW 4.6 mph - 0.00 in   Mostly Cloudy
9:58 AM 44.1 °F 41.5 °F 43.0 °F 96% 29.80 in 80.0 mi South 4.6 mph - N/A   Mostly Cloudy
10:58 AM 46.2 °F - 40.3 °F 80% 29.78 in 90.0 mi Variable 2.3 mph - N/A   Mostly Cloudy
11:18 AM 46.4 °F - 41.0 °F 81% 29.78 in 90.0 mi WNW 2.3 mph - N/A   Mostly Cloudy
11:58 AM 47.8 °F - 40.3 °F 75% 29.76 in 90.0 mi West 2.3 mph - N/A   Mostly Cloudy
12:27 PM 48.2 °F - 41.0 °F 76% 29.74 in 80.0 mi NNW 2.3 mph - N/A Rain Light Rain Showers
12:58 PM 48.6 °F - 41.5 °F 77% 29.73 in 80.0 mi East 2.3 mph - 0.00 in   Overcast
1:08 PM 48.2 °F - 44.6 °F 87% 29.73 in 80.0 mi East 5.8 mph - N/A Rain Light Rain Showers
1:28 PM 46.4 °F 43.5 °F 46.4 °F 100% 29.74 in 4.0 mi ESE 5.8 mph - N/A Rain Light Rain Showers
1:45 PM 46.4 °F 43.5 °F 46.4 °F 100% 29.73 in 7.0 mi ESE 5.8 mph - N/A Rain Light Rain Showers
1:58 PM 46.4 °F 44.3 °F 46.4 °F 100% 29.73 in 20.0 mi SSE 4.6 mph - 0.05 in   Overcast
2:58 PM 47.8 °F - 45.7 °F 92% 29.71 in 25.0 mi NW 2.3 mph - N/A   Mostly Cloudy
3:58 PM 48.7 °F - 43.5 °F 82% 29.70 in 20.0 mi NE 2.3 mph - N/A   Mostly Cloudy
4:58 PM 48.4 °F - 44.8 °F 87% 29.71 in 25.0 mi Calm Calm - N/A   Mostly Cloudy
5:58 PM 47.1 °F - 44.6 °F 91% 29.71 in 25.0 mi NW 4.6 mph - N/A   Mostly Cloudy
6:58 PM 44.4 °F 40.5 °F 39.0 °F 81% 29.73 in 25.0 mi WNW 6.9 mph - N/A   Overcast
7:04 PM 44.6 °F 39.7 °F 39.2 °F 81% 29.72 in 20.0 mi WNW 9.2 mph - N/A   Overcast
7:20 PM 44.6 °F 43.1 °F 39.2 °F 81% 29.72 in 20.0 mi Variable 3.5 mph - N/A Rain Light Rain Showers
7:58 PM 43.7 °F - 41.0 °F 90% 29.74 in 20.0 mi SSW 2.3 mph - 0.00 in   Light Drizzle
8:25 PM 42.8 °F 41.1 °F 41.0 °F 93% 29.73 in 20.0 mi West 3.5 mph - N/A   Overcast
8:58 PM 43.5 °F 40.1 °F 38.3 °F 82% 29.74 in 20.0 mi West 5.8 mph - 0.00 in   Overcast
9:58 PM 43.3 °F 39.2 °F 36.7 °F 77% 29.73 in 25.0 mi West 6.9 mph - N/A   Overcast
10:58 PM 41.2 °F 37.3 °F 39.9 °F 95% 29.74 in 10.0 mi SW 5.8 mph - N/A   Overcast
11:58 PM 39.2 °F 33.0 °F 38.5 °F 97% 29.72 in 10.0 mi WSW 9.2 mph - N/A   Mostly Cloudy